Theta_e
298 299 302 303 303 303 303 302 302 302 301 301 302 301 300 301 302 303 304 316 321 323 329 335 343 345 346 346 347 347 347 347 346 345 345 343 342 339 338 338 337 335 334
298 298 299 300 301 301 302 301 301 301 300 300 300 301 300 300 300 301 302 303 316 318 320 324 330 336 343 346 346 346 346 346 346 346 346 345 343 341 340 339 338 336 335
298 297 297 298 299 299 300 301 301 301 300 301 300 301 301 300 300 300 301 302 304 312 315 317 320 326 333 340 344 345 345 345 346 346 346 345 344 344 342 340 338 337 336
298 297 297 297 299 298 298 299 299 299 299 299 298 299 299 300 300 300 301 301 302 303 309 314 316 319 323 328 335 341 344 344 345 346 346 346 345 344 343 342 341 339 337
297 296 296 297 297 298 297 297 298 298 297 297 299 299 298 298 299 302 300 301 302 303 303 309 314 317 320 322 325 330 338 343 345 345 345 345 345 343 343 343 342 341 338
297 296 296 295 297 297 297 295 295 295 295 295 298 298 297 298 298 298 299 301 301 302 303 302 301 304 313 317 320 324 327 335 341 343 344 344 344 344 343 343 343 342 340
297 295 296 295 295 295 296 297 295 294 293 295 294 294 295 296 296 296 297 298 300 301 301 301 302 302 304 315 319 321 323 325 333 343 344 345 344 344 343 344 343 342 341
297 297 296 295 294 294 295 294 294 293 293 294 293 291 288 291 293 295 295 297 296 298 301 302 301 303 307 311 315 324 325 329 329 333 342 343 345 345 344 343 343 343 342
297 297 296 295 293 292 292 293 294 293 293 293 294 292 287 286 289 292 294 296 297 296 297 299 301 301 300 306 313 318 322 324 327 332 337 339 342 345 344 344 344 343 343
296 297 297 296 295 294 292 292 295 294 293 292 293 296 292 291 287 286 291 292 295 296 296 297 298 299 301 306 314 316 317 319 322 324 330 336 337 342 344 345 344 343 343
297 297 297 296 295 294 292 292 292 292 293 294 292 292 291 291 289 288 287 289 293 295 296 296 297 299 302 305 306 309 315 317 316 318 322 328 334 336 340 343 344 344 343
296 296 297 297 296 295 295 294 292 291 291 292 294 295 293 290 290 288 287 288 289 292 294 295 295 296 299 302 308 315 314 315 316 320 320 321 326 330 336 339 343 345 343
294 295 296 297 297 297 296 296 295 292 292 291 291 293 294 294 293 292 290 289 288 290 291 293 294 296 299 300 302 310 313 316 317 318 318 320 322 325 329 336 339 344 344
294 295 296 297 297 298 298 297 296 295 293 291 291 290 292 293 295 293 292 289 287 288 289 290 293 295 297 301 307 311 307 311 312 313 315 316 319 322 327 333 337 339 341
297 295 295 296 296 296 298 297 296 295 296 296 293 291 291 293 293 293 293 293 292 286 287 289 291 295 296 301 303 304 305 308 311 312 313 316 317 319 324 332 335 337 338
299 295 295 295 296 297 297 297 296 296 295 295 296 294 294 294 293 294 293 293 294 293 288 290 291 293 296 301 302 302 302 307 309 311 313 315 317 320 323 329 332 333 335
297 295 295 295 295 295 296 295 296 295 294 294 295 295 295 295 295 294 293 292 292 293 291 289 291 293 294 296 297 296 298 298 301 310 313 315 316 319 322 326 329 330 332
296 295 295 295 295 295 296 295 293 296 294 294 294 295 294 295 294 295 296 294 294 293 291 288 290 291 293 295 297 295 294 296 296 303 314 316 317 319 321 325 325 326 326
297 296 296 295 294 295 295 295 295 295 294 294 294 294 295 295 294 293 295 294 294 296 292 290 289 292 289 289 290 292 292 291 294 302 317 320 320 321 322 323 322 320 318
297 296 296 296 296 296 296 296 296 295 295 295 295 294 293 294 293 293 295 293 293 292 290 291 292 292 291 288 286 288 288 289 287 294 301 311 313 313 313 313 312 310 309
295 297 296 296 297 297 296 296 295 295 293 293 294 295 295 295 299 297 294 292 292 293 292 292 291 290 288 282 286 286 285 286 286 286 292 296 298 300 302 305 305 305 304
292 295 296 296 296 297 299 301 298 295 294 294 292 293 296 298 298 301 301 301 298 291 288 288 287 285 285 283 285 285 285 285 283 287 286 288 295 294 296 299 303 302 302
291 292 294 294 295 297 300 300 301 297 296 296 294 295 296 297 298 295 298 297 295 297 299 297 293 286 285 285 285 285 284 284 283 284 285 285 289 290 295 298 301 301 300
289 291 294 294 293 295 299 300 301 300 297 297 297 297 297 297 297 293 290 289 289 290 288 289 288 285 285 285 285 285 285 284 285 285 286 283 286 285 290 294 297 298 298
289 289 291 293 293 294 297 296 292 289 289 291 292 292 291 291 295 294 287 287 287 289 295 295 294 295 295 293 289 287 285 285 283 284 285 285 285 285 287 289 293 296 296
288 289 288 291 295 293 297 297 292 290 289 290 291 292 296 293 295 293 285 285 284 284 285 285 285 290 293 293 293 288 288 284 284 284 287 286 286 285 284 287 288 290 292
Wind_Speed
8 7 7 6 6 4 4 5 4 3 3 5 5 5 6 6 6 3 3 10 10 11 10 9 12 16 19 19 18 19 19 20 19 19 18 18 19 18 16 16 15 15 14
7 8 8 6 5 4 3 4 4 3 4 3 5 6 6 5 7 6 3 4 10 10 11 12 11 12 16 18 20 21 20 20 20 20 19 20 20 20 18 18 17 17 16
11 8 6 6 7 6 6 3 4 3 2 2 4 5 5 6 5 6 5 3 4 10 11 12 12 13 13 17 18 21 20 22 21 21 21 21 21 22 21 20 19 19 18
10 9 5 5 7 5 5 4 4 4 4 4 3 4 4 5 6 5 5 4 3 3 7 12 15 17 17 17 17 17 18 21 23 22 22 23 23 22 22 22 21 20 20
9 10 8 7 5 7 7 5 4 4 3 3 4 5 5 5 5 5 6 6 6 5 4 9 14 15 17 20 20 20 19 18 21 22 23 22 24 23 23 23 23 22 22
13 11 7 6 5 4 7 5 6 5 4 5 6 7 5 4 4 4 5 6 5 6 6 6 5 5 17 19 21 22 21 22 19 23 25 25 25 26 25 25 24 23 22
12 10 9 9 7 6 8 9 4 6 5 4 2 3 4 5 6 4 4 6 7 8 6 5 4 3 4 13 15 20 22 23 24 20 23 26 28 29 29 27 26 25 24
14 14 13 11 12 8 9 6 6 3 4 5 5 2 2 4 3 4 4 6 7 5 5 5 4 4 4 3 5 9 11 16 23 24 18 22 27 28 28 28 28 27 26
16 15 13 9 7 5 5 5 4 6 8 4 7 5 2 5 2 3 4 3 6 4 5 4 4 4 5 5 6 6 10 16 17 19 22 20 22 27 30 31 30 29 28
16 15 15 14 12 7 6 6 7 5 4 6 3 6 2 5 4 3 3 4 3 5 6 5 4 4 4 4 6 8 11 14 16 19 19 20 22 22 25 30 30 30 29
15 16 15 15 11 8 6 8 7 6 5 4 5 3 4 4 3 4 8 5 3 4 4 5 4 4 4 4 4 6 11 15 17 19 19 18 18 23 22 26 29 30 31
11 13 14 13 12 11 11 9 8 7 6 5 5 7 8 4 6 3 3 5 4 5 3 3 4 4 5 4 7 11 16 18 18 18 20 21 20 21 24 25 28 29 30
9 11 12 12 10 12 10 9 7 7 8 6 6 6 5 7 4 4 4 4 4 4 3 3 3 3 4 5 7 15 14 15 18 20 21 22 22 22 23 25 25 27 30
11 12 11 11 11 10 10 10 7 5 4 5 6 5 4 5 4 4 5 4 3 3 3 6 2 3 3 4 6 14 7 17 20 23 25 24 25 23 25 24 23 25 27
11 11 11 11 10 10 8 9 7 8 8 5 3 4 3 3 4 5 5 5 5 5 5 3 3 4 4 4 6 5 6 16 24 26 27 26 26 26 26 25 23 25 26
15 8 7 8 7 6 9 9 6 7 7 6 6 9 2 1 3 3 4 4 4 6 7 5 5 5 5 4 6 5 8 18 23 27 29 27 28 27 25 25 23 24 23
8 3 4 5 5 6 7 6 7 7 9 10 9 7 11 10 4 3 3 3 4 5 9 3 4 4 3 4 5 4 5 8 11 27 31 30 29 28 26 25 24 20 22
5 2 3 1 3 3 4 5 6 9 7 5 6 8 9 7 11 8 4 6 5 4 5 6 4 2 3 3 4 5 5 7 10 22 30 30 28 27 26 24 18 18 20
5 4 2 0 1 4 3 5 4 5 7 8 6 8 10 11 8 4 4 6 6 5 5 4 4 2 1 2 2 3 4 8 9 22 12 26 24 23 16 18 16 22 26
10 7 3 1 2 4 6 5 4 6 5 6 6 6 5 6 7 6 7 9 4 4 4 3 3 2 2 2 0 1 3 3 9 11 16 21 21 26 28 29 26 27 25
16 12 6 3 3 5 5 5 6 7 6 6 9 5 5 10 14 12 5 6 5 4 4 4 3 3 3 2 3 2 0 2 4 10 6 11 9 10 13 24 27 28 28
18 15 15 7 6 6 13 14 11 7 7 6 4 6 8 13 11 16 15 16 10 6 5 4 4 4 4 3 2 2 1 1 3 7 6 7 9 12 10 10 27 26 24
18 16 16 15 14 18 12 14 13 8 7 5 4 4 5 5 8 3 3 6 6 7 7 5 9 5 5 4 6 4 3 4 3 3 3 9 6 14 10 11 23 23 24
18 15 16 15 15 17 26 26 21 3 3 4 4 5 5 4 5 7 8 9 8 6 5 5 6 8 7 10 7 7 7 7 6 5 5 7 5 7 9 9 23 23 20
15 17 16 19 19 20 34 33 21 15 15 17 16 18 15 15 22 19 11 9 9 9 15 20 22 25 26 24 14 8 5 8 6 3 5 3 3 7 5 4 9 17 16
15 13 16 16 27 20 34 33 20 10 13 11 14 17 28 20 28 25 13 12 14 11 12 14 9 16 16 18 19 8 6 8 5 5 4 2 2 2 3 3 2 2 2
Wind_Direction
287 284 287 281 267 267 252 251 248 260 290 301 307 307 312 314 307 298 310 316 324 318 302 278 267 264 256 242 230 224 223 220 219 217 202 198 202 202 202 202 197 199 200
271 281 276 276 276 248 232 246 260 224 254 297 302 298 305 308 309 309 301 315 318 324 321 309 288 268 274 262 251 235 229 226 221 216 212 202 201 204 204 206 205 206 207
268 270 267 268 258 250 233 226 260 231 232 265 287 298 299 300 310 309 315 327 334 330 323 319 312 310 289 267 259 257 243 236 228 221 214 210 209 202 200 203 210 210 212
266 275 267 261 275 260 230 216 223 246 236 231 245 269 283 291 290 294 298 319 322 316 316 314 306 298 299 299 306 275 256 247 238 230 221 215 213 210 206 201 205 212 213
278 280 284 274 270 279 257 214 212 181 206 241 249 246 255 266 288 301 300 301 303 306 294 297 302 302 297 292 289 294 290 263 247 239 230 223 219 214 210 206 206 208 212
266 264 270 265 267 287 283 255 205 217 189 202 245 259 238 245 256 270 281 288 282 279 279 282 284 281 285 281 282 283 278 284 264 247 235 226 223 221 216 209 209 209 212
261 259 261 258 261 243 259 261 231 208 232 212 184 285 266 242 254 262 279 280 275 263 257 272 276 282 290 289 291 283 279 269 275 260 242 237 226 222 220 215 211 210 211
274 262 256 256 249 244 244 243 230 230 213 186 203 163 239 309 289 242 250 266 265 251 235 232 279 302 308 293 295 339 343 320 282 270 267 250 240 223 221 220 215 211 212
288 279 260 249 232 206 212 223 236 242 247 232 196 184 153 224 239 274 247 243 277 286 259 239 237 254 284 285 295 307 327 322 311 313 263 264 253 241 230 219 217 213 212
277 280 270 253 250 244 231 226 232 207 183 228 232 228 218 157 183 290 288 282 263 260 272 282 281 299 289 264 278 297 310 312 315 318 307 276 266 257 245 225 218 215 212
270 269 268 265 253 234 217 214 223 221 207 228 208 198 211 203 170 178 266 288 323 267 261 260 283 295 284 276 277 279 299 302 297 294 296 292 284 276 260 250 225 217 214
277 264 263 262 252 242 238 232 219 212 212 220 218 216 212 180 212 162 201 251 229 280 279 279 266 282 283 287 280 270 286 291 296 292 293 289 282 272 274 260 242 224 217
268 265 260 260 247 246 239 235 216 220 227 220 206 216 210 218 168 170 165 224 220 254 264 258 246 271 301 311 306 297 292 295 296 294 289 282 281 272 265 267 255 236 220
262 257 260 251 267 258 253 240 244 206 197 226 224 214 215 213 188 174 179 179 259 255 248 243 287 281 305 297 303 317 311 303 295 290 286 283 277 276 268 259 255 241 227
263 238 248 248 245 259 274 239 236 236 231 239 240 224 216 244 216 195 176 180 210 239 252 247 228 243 274 257 276 288 288 291 292 287 280 272 270 269 265 257 249 240 230
313 199 237 257 238 251 233 237 233 225 238 238 219 262 261 248 286 257 210 190 199 234 253 188 228 228 237 256 270 290 286 295 290 284 277 268 262 258 255 250 241 237 226
9 138 240 250 239 242 241 248 234 227 231 228 236 216 242 263 258 238 247 258 231 207 248 266 226 240 257 256 291 294 292 302 289 283 272 264 256 250 246 242 234 232 220
0 356 320 228 248 254 242 234 231 229 212 197 210 217 243 249 232 249 251 290 229 227 193 212 230 224 222 253 279 284 332 315 297 289 268 255 248 244 242 233 217 215 176
12 1 356 106 240 248 257 235 248 249 225 232 218 221 223 233 240 196 210 216 224 241 234 188 221 207 262 332 307 303 340 321 314 327 306 242 238 243 220 213 155 145 137
17 9 15 271 259 264 243 240 239 244 243 236 229 235 226 221 212 210 226 240 213 229 220 187 174 177 188 229 62 346 2 313 331 360 356 79 89 92 96 102 107 109 112
5 6 3 353 302 274 261 235 219 236 234 239 239 245 249 230 233 220 206 218 206 207 223 192 183 179 178 193 185 181 161 295 324 20 353 44 63 73 77 91 99 103 107
6 12 23 3 332 291 269 269 211 212 219 224 225 222 240 257 247 244 247 243 212 207 214 193 188 187 170 165 110 191 174 260 340 358 5 36 63 75 62 80 94 100 105
10 11 25 17 8 8 258 267 273 196 194 232 225 239 253 245 250 238 298 55 27 337 307 237 223 181 151 156 134 115 92 102 79 330 335 51 19 71 68 99 107 103 95
13 14 22 25 29 29 34 41 43 106 176 194 223 272 290 274 274 91 82 70 54 43 39 45 94 106 107 112 105 115 113 103 85 41 340 72 18 58 61 65 77 79 87
19 24 11 27 33 40 46 47 49 49 53 59 59 59 58 61 69 76 70 65 64 58 87 104 109 115 115 113 117 119 103 104 89 41 8 69 20 70 51 36 70 89 81
20 15 28 19 37 44 52 50 48 48 57 60 63 66 77 82 78 73 69 70 68 54 60 60 52 67 79 87 77 66 86 93 97 87 351 61 38 47 86 355 52 144 84